TimeAST,TemperatureF,Dew PointF,Humidity,Sea Level PressureIn,VisibilityMPH,Wind Direction,Wind SpeedMPH,Gust SpeedMPH,PrecipitationIn,Events,Conditions,WindDirDegrees,DateUTC
1:00 AM,82.4,78.8,89,29.98,6.2,East,10.4,-,N/A,,Partly Cloudy,100,2012-10-08 05:00:00
2:00 AM,82,79,87,29.91,12,East,10.4,,,,Scattered Clouds,90,2012-10-08 06:00:00
2:00 AM,82.4,78.8,89,29.98,6.2,East,10.4,-,N/A,,Partly Cloudy,90,2012-10-08 06:00:00
3:00 AM,82.4,78.8,89,29.95,6.2,East,10.4,-,N/A,,Partly Cloudy,90,2012-10-08 07:00:00
4:00 AM,82.4,80.6,94,29.89,6.2,East,10.4,-,N/A,,Partly Cloudy,90,2012-10-08 08:00:00
5:00 AM,82.4,77.0,84,29.89,6.2,East,10.4,-,N/A,,Partly Cloudy,80,2012-10-08 09:00:00
6:00 AM,82.4,78.8,89,29.92,6.2,East,10.4,-,N/A,,Partly Cloudy,80,2012-10-08 10:00:00
7:00 AM,82.4,78.8,89,29.95,6.2,East,10.4,-,N/A,,Partly Cloudy,90,2012-10-08 11:00:00
8:00 AM,84,79,80,29.95,12,East,10.4,,,,Haze,90,2012-10-08 12:00:00
8:00 AM,84.2,78.8,84,29.92,6.2,East,10.4,-,N/A,,Scattered Clouds,90,2012-10-08 12:00:00
9:00 AM,84.2,78.8,84,29.95,6.2,East,10.4,-,N/A,,Scattered Clouds,100,2012-10-08 13:00:00
10:00 AM,87.8,80.6,79,29.95,6.2,East,12.7,-,N/A,,Scattered Clouds,100,2012-10-08 14:00:00
11:00 AM,91,84,74,29.94,16,ESE,10.4,,,,Partly Cloudy,110,2012-10-08 15:00:00
11:00 AM,91.4,84.2,79,29.95,6.2,East,12.7,-,N/A,,Scattered Clouds,100,2012-10-08 15:00:00
12:00 PM,86.0,78.8,79,29.92,6.2,East,15.0,-,N/A,,Scattered Clouds,100,2012-10-08 16:00:00
1:00 PM,87.8,77.0,70,29.89,6.2,East,13.8,-,N/A,,Scattered Clouds,100,2012-10-08 17:00:00
2:00 PM,87,78,69,29.88,16,ESE,11.5,,,,Scattered Clouds,110,2012-10-08 18:00:00
2:00 PM,87.8,78.8,75,29.89,6.2,ESE,11.5,-,N/A,,Partly Cloudy,110,2012-10-08 18:00:00
3:00 PM,87.8,77.0,70,29.86,6.2,East,16.1,-,N/A,,Partly Cloudy,100,2012-10-08 19:00:00
4:00 PM,86.0,77.0,74,29.86,6.2,East,12.7,-,N/A,,Partly Cloudy,90,2012-10-08 20:00:00
5:00 PM,85,77,72,29.85,16,East,12.7,,,,Scattered Clouds,100,2012-10-08 21:00:00
5:00 PM,86.0,77.0,74,29.86,6.2,East,12.7,-,N/A,,Partly Cloudy,100,2012-10-08 21:00:00
6:00 PM,84.2,77.0,79,29.86,6.2,East,12.7,-,N/A,,Partly Cloudy,100,2012-10-08 22:00:00
7:00 PM,82.4,77.0,84,29.86,6.2,East,12.7,-,N/A,,Partly Cloudy,100,2012-10-08 23:00:00
8:00 PM,82,77,81,29.91,16,East,13.8,,,,Scattered Clouds,90,2012-10-09 00:00:00
8:00 PM,82.4,77.0,84,29.89,6.2,East,13.8,-,N/A,,Partly Cloudy,90,2012-10-09 00:00:00
9:00 PM,82.4,77.0,84,29.92,6.2,East,13.8,-,N/A,,Partly Cloudy,90,2012-10-09 01:00:00
10:00 PM,82.4,77.0,84,29.92,6.2,East,13.8,-,N/A,,Partly Cloudy,100,2012-10-09 02:00:00
11:00 PM,82,77,79,29.94,16,ESE,12.7,,,,Scattered Clouds,110,2012-10-09 03:00:00
11:00 PM,82.4,77.0,84,29.92,6.2,East,16.1,-,N/A,,Partly Cloudy,100,2012-10-09 03:00:00